Chongqing, China

4:05 PM CST on November 21, 2019 (GMT +0800)
Jiangbei

Weather History for ZUCK - September, 2019

Change the Weather History Date:

Monday, September 9, 2019

  Actual Average Record
Temperature  
Mean Temperature 80 °F -  
Max Temperature 86 °F - - ()
Min Temperature 73 °F - - ()
Cooling Degree Days 14    
Growing Degree Days 30 (Base 50)    
Moisture  
Dew Point 76 °F    
Average Humidity 92    
Maximum Humidity 100    
Minimum Humidity 68    
Precipitation  
Precipitation 0.31 in - - ()
Sea Level Pressure  
Sea Level Pressure 29.63 in    
Wind  
Wind Speed 4 mph ()    
Max Wind Speed 9 mph    
Max Gust Speed -    
Visibility 4.1 miles    
Events Rain , Thunderstorm    
T = Trace of Precipitation, MM = Missing Value Source: Averaged Metar Reports

Daily Weather History Graph

Daily Weather History Graph

Search for Another Location

Airport or City:

Astronomy

Sep. 09, 2019 Rise Set
Actual Time 6:34 AM CST 7:06 PM CST
Civil Twilight 6:10 AM CST 7:30 PM CST
Nautical Twilight 5:42 AM CST 7:59 PM CST
Astronomical Twilight 5:13 AM CST 8:27 PM CST
Moon 4:16 PM CST (9/9) 1:58 AM CST (9/9)
Length of Visible Light 13h 20m
Length of Day
12h 32m
Waxing Gibbous, 79% of the Moon is Illuminated
Sep 9
Waxing Gibbous
Sep 14
Full
Sep 22
Last Quarter
Sep 29
New
Oct 6
First Quarter

Hourly Weather History & Observations

Time (CST) Temp. Heat Index Dew Point Humidity Pressure Visibility Wind Dir Wind Speed Gust Speed Precip Events Conditions
12:00 AM 75.2 °F - 75.2 °F 100% 29.65 in 5.0 mi North 8.9 mph - N/A   Mostly Cloudy
1:00 AM 75.2 °F - 75.2 °F 100% 29.65 in 5.0 mi NNE 6.7 mph - N/A Rain Light Rain
2:00 AM 76 °F - 75 °F 94% 29.59 in 1 mi NNW 2.2 mph - - Rain Light Rain
2:00 AM 75.2 °F - 75.2 °F 100% 29.65 in 1.9 mi East 4.5 mph - N/A Rain Rain Showers
3:00 AM 73.4 °F - 73.4 °F 100% 29.65 in 2.5 mi North 6.7 mph - N/A Rain Light Rain Showers
5:00 AM 76 °F - 74 °F 93% 29.57 in 2 mi NW 2.2 mph - - Rain Light Rain
5:00 AM 73.4 °F - 73.4 °F 100% 29.62 in 2.5 mi NNE 6.7 mph - N/A Rain Light Rain
6:00 AM 73.4 °F - 73.4 °F 100% 29.65 in 3.1 mi North 6.7 mph - N/A   Overcast
7:00 AM 75.2 °F - 75.2 °F 100% 29.65 in 2.5 mi NNE 4.5 mph - N/A Rain Light Rain
8:00 AM 76 °F - 74 °F 94% 29.60 in 1 mi NW 2.2 mph - - Rain Light Rain
8:00 AM 75.2 °F - 75.2 °F 100% 29.65 in 2.5 mi North 6.7 mph - N/A Rain Light Rain
9:00 AM 75.2 °F - 75.2 °F 100% 29.68 in 2.5 mi NE 4.5 mph - N/A Rain Light Rain
10:00 AM 77.0 °F - 75.2 °F 94% 29.68 in 3.1 mi NNE 4.5 mph - N/A Rain Light Rain
11:00 AM 78 °F - 76 °F 91% 29.61 in 2 mi North 2.2 mph - - Rain Light Rain
11:00 AM 80.6 °F 87.1 °F 77.0 °F 89% 29.68 in 6.2 mi East 4.5 mph - N/A   Scattered Clouds
12:00 PM 82.4 °F 89.5 °F 75.2 °F 79% 29.65 in 6.2 mi East 4.5 mph - N/A   Mostly Cloudy
1:00 PM 82.4 °F 89.5 °F 75.2 °F 79% 29.65 in 6.2 mi Variable 2.2 mph - N/A   Scattered Clouds
2:00 PM 84 °F - 75 °F 68% 29.55 in - ENE 2.2 mph - -   Mist
2:00 PM 84.2 °F 94.1 °F 77.0 °F 79% 29.62 in 6.2 mi ESE 4.5 mph - N/A   Partly Cloudy
4:00 PM 86.0 °F 96.9 °F 77.0 °F 74% 29.59 in 6.2 mi North 6.7 mph - N/A   Scattered Clouds
5:00 PM 78 °F - 75 °F 89% 29.53 in 6 mi East 2.2 mph - - Rain Light Rain
5:00 PM 77.0 °F - 77.0 °F 100% 29.59 in 5.6 mi WSW 6.7 mph - N/A Rain , Thunderstorm Thunderstorms and Rain
6:00 PM 77.0 °F - 77.0 °F 100% 29.59 in 6.2 mi East 4.5 mph - N/A Rain Light Rain Showers
7:00 PM 78.8 °F - 77.0 °F 94% 29.62 in 6.2 mi WNW 4.5 mph - N/A   Scattered Clouds
8:00 PM 79 °F - 75 °F 85% 29.57 in 5 mi NW 2.2 mph - -   Clear
8:00 PM 78.8 °F - 77.0 °F 94% 29.65 in - Calm Calm - N/A   Clear
9:00 PM 77.0 °F - 77.0 °F 100% 29.65 in - North 4.5 mph - N/A   Clear
10:00 PM 78.8 °F - 77.0 °F 94% 29.68 in - North 6.7 mph - N/A   Clear
11:00 PM 78 °F - 75 °F 88% 29.62 in 7 mi NE 2.2 mph - - Rain Light Rain
11:00 PM 78.8 °F - 77.0 °F 94% 29.68 in - Variable 2.2 mph - N/A   Clear